| time (UTC) | temp F | wind direction | speed MPH | gust MPH | rain 1hr in | rain 24hr in | rain mn in | humidity % | barometer mb |
| 20260508165421 | 70 | 207 | 6.0 | 15.0 | 0.00 | 0.00 | 0.00 | 40 | 1012.9 |
| 20260508164402 | 69 | 210 | 4.0 | 14.0 | 0.00 | 0.00 | 0.00 | 39 | 1012.9 |
| 20260508163401 | 68 | 256 | 3.0 | 17.0 | 0.00 | 0.00 | 0.00 | 43 | 1013.0 |
| 20260508162422 | 68 | 221 | 4.0 | 15.0 | 0.00 | 0.00 | 0.00 | 41 | 1013.1 |
| 20260508161401 | 68 | 236 | 5.0 | 13.0 | 0.00 | 0.00 | 0.00 | 43 | 1013.4 |
| 20260508160400 | 67 | 233 | 3.0 | 14.0 | 0.00 | 0.00 | 0.00 | 42 | 1013.3 |
| 20260508155401 | 67 | 213 | 5.0 | 13.0 | 0.00 | 0.00 | 0.00 | 45 | 1013.6 |
| 20260508154401 | 66 | 200 | 2.0 | 18.0 | 0.00 | 0.00 | 0.00 | 46 | 1013.7 |
| 20260508153401 | 65 | 243 | 5.0 | 13.0 | 0.00 | 0.00 | 0.00 | 44 | 1013.9 |
| 20260508152445 | 64 | 226 | 5.0 | 14.0 | 0.00 | 0.00 | 0.00 | 45 | 1013.9 |
| 20260508151422 | 64 | 256 | 6.0 | 11.0 | 0.00 | 0.00 | 0.00 | 46 | 1014.1 |
| 20260508150401 | 64 | 195 | 3.0 | 9.0 | 0.00 | 0.00 | 0.00 | 45 | 1014.1 |
| 20260508145402 | 64 | 214 | 4.0 | 13.0 | 0.00 | 0.00 | 0.00 | 46 | 1014.2 |
| 20260508143422 | 62 | 267 | 5.0 | 10.0 | 0.00 | 0.00 | 0.00 | 46 | 1014.3 |
| 20260508142422 | 61 | 234 | 5.0 | 11.0 | 0.00 | 0.00 | 0.00 | 48 | 1014.3 |
| 20260508141402 | 61 | 242 | 3.0 | 9.0 | 0.00 | 0.00 | 0.00 | 51 | 1014.5 |
| 20260508140401 | 60 | 233 | 2.0 | 7.0 | 0.00 | 0.00 | 0.00 | 54 | 1014.5 |
| 20260508135402 | 59 | 140 | 2.0 | 7.0 | 0.00 | 0.00 | 0.00 | 56 | 1014.6 |
| 20260508134401 | 59 | 215 | 2.0 | 4.0 | 0.00 | 0.00 | 0.00 | 59 | 1014.7 |
| 20260508133402 | 58 | 164 | 2.0 | 5.0 | 0.00 | 0.00 | 0.00 | 59 | 1014.7 |
| 20260508132423 | 57 | 212 | 1.0 | 5.0 | 0.00 | 0.00 | 0.00 | 60 | 1014.8 |
| 20260508131401 | 56 | 229 | 1.0 | 5.0 | 0.00 | 0.00 | 0.00 | 62 | 1014.9 |
| 20260508130424 | 55 | 234 | 1.0 | 5.0 | 0.00 | 0.00 | 0.00 | 65 | 1014.9 |
| 20260508125422 | 54 | 201 | 1.0 | 4.0 | 0.00 | 0.00 | 0.00 | 70 | 1014.9 |
| 20260508124402 | 53 | 230 | 1.0 | 2.0 | 0.00 | 0.00 | 0.00 | 73 | 1014.9 |
| 20260508123402 | 52 | 231 | 0.0 | 3.0 | 0.00 | 0.00 | 0.00 | 76 | 1014.7 |
| 20260508122422 | 50 | 230 | 1.0 | 4.0 | 0.00 | 0.00 | 0.00 | 79 | 1014.7 |
| 20260508121402 | 49 | 229 | 0.0 | 0.0 | 0.00 | 0.00 | 0.00 | 83 | 1014.9 |
| 20260508120401 | 47 | 229 | 0.0 | 0.0 | 0.00 | 0.00 | 0.00 | 85 | 1014.8 |
| 20260508115402 | 46 | 229 | 0.0 | 0.0 | 0.00 | 0.00 | 0.00 | 87 | 1014.8 |
| 20260508114423 | 45 | 233 | 0.0 | 1.0 | 0.00 | 0.00 | 0.00 | 89 | 1014.5 |
| 20260508113402 | 44 | 233 | 0.0 | 1.0 | 0.00 | 0.00 | 0.00 | 89 | 1014.4 |
| 20260508112403 | 43 | 232 | 0.0 | 0.0 | 0.00 | 0.00 | 0.00 | 89 | 1014.4 |
| 20260508111402 | 42 | 232 | 0.0 | 0.0 | 0.00 | 0.00 | 0.00 | 89 | 1014.1 |
| 20260508110402 | 42 | 232 | 0.0 | 0.0 | 0.00 | 0.00 | 0.00 | 89 | 1014.0 |
| 20260508105402 | 41 | 232 | 0.0 | 1.0 | 0.00 | 0.00 | 0.00 | 88 | 1014.0 |
| 20260508104402 | 41 | 225 | 0.0 | 0.0 | 0.00 | 0.00 | 0.00 | 88 | 1014.0 |
| 20260508103402 | 41 | 225 | 0.0 | 0.0 | 0.00 | 0.00 | 0.00 | 87 | 1013.9 |
| 20260508102402 | 42 | 224 | 0.0 | 1.0 | 0.00 | 0.00 | 0.00 | 87 | 1013.8 |
| 20260508101402 | 42 | 228 | 0.0 | 1.0 | 0.00 | 0.00 | 0.00 | 87 | 1013.7 |
| 20260508100402 | 42 | 229 | 0.0 | 0.0 | 0.00 | 0.00 | 0.00 | 87 | 1013.5 |
| 20260508095402 | 43 | 229 | 0.0 | 0.0 | 0.00 | 0.00 | 0.00 | 86 | 1013.4 |
| 20260508094403 | 43 | 229 | 0.0 | 1.0 | 0.00 | 0.00 | 0.00 | 86 | 1013.4 |
| 20260508093402 | 44 | 229 | 0.0 | 1.0 | 0.00 | 0.00 | 0.00 | 86 | 1013.3 |
| 20260508092445 | 44 | 233 | 0.0 | 0.0 | 0.00 | 0.00 | 0.00 | 85 | 1013.2 |
| 20260508091403 | 45 | 233 | 0.0 | 0.0 | 0.00 | 0.00 | 0.00 | 85 | 1013.2 |
| 20260508090402 | 45 | 233 | 0.0 | 0.0 | 0.00 | 0.01 | 0.00 | 84 | 1013.2 |
| 20260508085402 | 45 | 233 | 0.0 | 3.0 | 0.00 | 0.01 | 0.00 | 83 | 1013.0 |
| 20260508084402 | 46 | 231 | 0.0 | 1.0 | 0.00 | 0.01 | 0.00 | 83 | 1013.0 |
| 20260508083402 | 46 | 232 | 0.0 | 2.0 | 0.00 | 0.01 | 0.00 | 82 | 1012.8 |
| 20260508082403 | 47 | 231 | 1.0 | 5.0 | 0.00 | 0.01 | 0.00 | 83 | 1012.8 |
| 20260508081402 | 48 | 265 | 0.0 | 3.0 | 0.00 | 0.01 | 0.00 | 85 | 1012.6 |
| 20260508080403 | 48 | 265 | 2.0 | 6.0 | 0.00 | 0.01 | 0.00 | 86 | 1012.5 |
| 20260508075402 | 48 | 266 | 1.0 | 4.0 | 0.00 | 0.01 | 0.00 | 87 | 1012.4 |
| 20260508074403 | 47 | 261 | 1.0 | 4.0 | 0.00 | 0.01 | 0.00 | 89 | 1012.2 |
| 20260508073403 | 47 | 285 | 2.0 | 4.0 | 0.00 | 0.01 | 0.00 | 89 | 1011.9 |
| 20260508072402 | 47 | 287 | 0.0 | 2.0 | 0.00 | 0.01 | 0.00 | 88 | 1011.9 |
| 20260508071403 | 48 | 287 | 0.0 | 2.0 | 0.00 | 0.01 | 0.00 | 88 | 1011.8 |
| 20260508070402 | 48 | 287 | 0.0 | 2.0 | 0.00 | 0.01 | 0.00 | 88 | 1011.6 |
| 20260508065403 | 49 | 287 | 0.0 | 3.0 | 0.00 | 0.01 | 0.00 | 87 | 1011.5 |
| 20260508064403 | 49 | 288 | 1.0 | 4.0 | 0.00 | 0.01 | 0.00 | 87 | 1011.3 |
| 20260508063402 | 49 | 224 | 1.0 | 4.0 | 0.00 | 0.01 | 0.00 | 87 | 1011.2 |
| 20260508062403 | 49 | 224 | 0.0 | 3.0 | 0.00 | 0.01 | 0.00 | 87 | 1011.0 |
| 20260508060358 | 50 | 260 | 1.0 | 4.0 | 0.00 | 0.02 | 0.00 | 87 | 1011.0 |
| 20260508055358 | 50 | 275 | 1.0 | 4.0 | 0.00 | 0.02 | 0.00 | 87 | 1010.8 |
| 20260508054358 | 50 | 198 | 1.0 | 5.0 | 0.00 | 0.03 | 0.00 | 87 | 1010.8 |
| 20260508053359 | 50 | 229 | 1.0 | 6.0 | 0.00 | 0.03 | 0.00 | 87 | 1010.9 |
| 20260508052358 | 50 | 246 | 2.0 | 7.0 | 0.00 | 0.05 | 0.00 | 86 | 1010.8 |
| 20260508051420 | 50 | 213 | 1.0 | 5.0 | 0.00 | 0.05 | 0.00 | 86 | 1010.7 |
| 20260508050359 | 50 | 222 | 1.0 | 4.0 | 0.00 | 0.05 | 0.00 | 85 | 1010.7 |
| 20260508045358 | 50 | 180 | 1.0 | 4.0 | 0.00 | 0.05 | 0.00 | 85 | 1010.6 |
| 20260508044420 | 50 | 208 | 0.0 | 4.0 | 0.00 | 0.05 | 0.00 | 85 | 1010.4 |
| 20260508043358 | 50 | 209 | 0.0 | 4.0 | 0.00 | 0.05 | 0.00 | 85 | 1010.4 |
| 20260508042420 | 50 | 185 | 1.0 | 4.0 | 0.00 | 0.05 | 0.00 | 84 | 1010.4 |
| 20260508041359 | 50 | 215 | 1.0 | 7.0 | 0.00 | 0.05 | 0.00 | 83 | 1010.4 |
| 20260508040359 | 51 | 186 | 1.0 | 4.0 | 0.00 | 0.10 | 0.05 | 83 | 1010.3 |
| 20260508035420 | 51 | 155 | 0.0 | 4.0 | 0.00 | 0.05 | 0.05 | 82 | 1010.2 |
| 20260508034359 | 51 | 166 | 0.0 | 4.0 | 0.00 | 0.05 | 0.05 | 82 | 1010.2 |
| 20260508033359 | 51 | 237 | 1.0 | 5.0 | 0.00 | 0.05 | 0.05 | 81 | 1010.2 |
| 20260508032358 | 51 | 222 | 1.0 | 5.0 | 0.00 | 0.05 | 0.05 | 81 | 1010.2 |
| 20260508031359 | 52 | 143 | 0.0 | 3.0 | 0.00 | 0.05 | 0.05 | 80 | 1010.3 |
| 20260508030421 | 52 | 86 | 0.0 | 5.0 | 0.00 | 0.05 | 0.05 | 80 | 1010.2 |
| 20260508025420 | 52 | 228 | 1.0 | 4.0 | 0.00 | 0.05 | 0.05 | 79 | 1010.1 |
| 20260508024359 | 52 | 183 | 1.0 | 4.0 | 0.00 | 0.05 | 0.05 | 78 | 1010.1 |
| 20260508023400 | 52 | 113 | 0.0 | 3.0 | 0.00 | 0.05 | 0.05 | 78 | 1010.1 |
| 20260508022400 | 53 | 123 | 0.0 | 6.0 | 0.00 | 0.05 | 0.05 | 77 | 1010.1 |
| 20260508021359 | 53 | 105 | 0.0 | 3.0 | 0.00 | 0.05 | 0.05 | 77 | 1010.2 |
| 20260508020359 | 53 | 132 | 2.0 | 3.0 | 0.00 | 0.05 | 0.05 | 76 | 1010.0 |
| 20260508015359 | 53 | 178 | 1.0 | 5.0 | 0.00 | 0.05 | 0.05 | 75 | 1010.0 |
| 20260508014421 | 53 | 200 | 1.0 | 6.0 | 0.00 | 0.05 | 0.05 | 76 | 1010.0 |
| 20260508013359 | 53 | 186 | 2.0 | 4.0 | 0.00 | 0.05 | 0.05 | 75 | 1009.9 |
| 20260508012359 | 53 | 149 | 0.0 | 3.0 | 0.00 | 0.05 | 0.05 | 74 | 1009.8 |
| 20260508011359 | 53 | 212 | 1.0 | 4.0 | 0.00 | 0.05 | 0.05 | 74 | 1009.6 |
| 20260508010400 | 53 | 180 | 0.0 | 3.0 | 0.00 | 0.05 | 0.05 | 73 | 1009.4 |
| 20260508005420 | 53 | 126 | 1.0 | 3.0 | 0.00 | 0.05 | 0.05 | 72 | 1009.3 |
| 20260508004421 | 54 | 124 | 0.0 | 5.0 | 0.00 | 0.05 | 0.05 | 71 | 1009.1 |
| 20260508003401 | 54 | 122 | 1.0 | 4.0 | 0.00 | 0.05 | 0.05 | 69 | 1009.0 |
| 20260508002359 | 55 | 121 | 0.0 | 2.0 | 0.00 | 0.05 | 0.05 | 68 | 1008.9 |
| 20260508001359 | 56 | 121 | 0.0 | 3.0 | 0.00 | 0.05 | 0.05 | 67 | 1008.8 |
| 20260508000400 | 56 | 120 | 1.0 | 3.0 | 0.00 | 0.05 | 0.05 | 66 | 1008.8 |
| 20260507235359 | 57 | 109 | 1.0 | 3.0 | 0.00 | 0.05 | 0.05 | 64 | 1008.4 |
| 20260507234359 | 58 | 109 | 1.0 | 7.0 | 0.00 | 0.05 | 0.05 | 63 | 1008.4 |
| 20260507233400 | 58 | 126 | 1.0 | 5.0 | 0.00 | 0.05 | 0.05 | 62 | 1008.3 |
| 20260507232401 | 58 | 129 | 2.0 | 7.0 | 0.00 | 0.05 | 0.05 | 61 | 1008.1 |
| 20260507231359 | 59 | 101 | 2.0 | 9.0 | 0.00 | 0.05 | 0.05 | 61 | 1008.1 |
| 20260507230400 | 60 | 141 | 1.0 | 6.0 | 0.00 | 0.05 | 0.05 | 61 | 1008.1 |
| 20260507225359 | 60 | 110 | 2.0 | 6.0 | 0.00 | 0.05 | 0.05 | 61 | 1007.9 |
| 20260507224400 | 61 | 105 | 3.0 | 8.0 | 0.00 | 0.05 | 0.05 | 60 | 1007.8 |
| 20260507223400 | 61 | 127 | 3.0 | 9.0 | 0.00 | 0.05 | 0.05 | 58 | 1007.7 |
| 20260507222400 | 62 | 63 | 1.0 | 8.0 | 0.00 | 0.05 | 0.05 | 58 | 1007.8 |
| 20260507221400 | 62 | 117 | 3.0 | 8.0 | 0.00 | 0.05 | 0.05 | 59 | 1007.7 |
| 20260507220359 | 62 | 93 | 1.0 | 9.0 | 0.00 | 0.05 | 0.05 | 58 | 1007.7 |
| 20260507215400 | 63 | 127 | 5.0 | 10.0 | 0.00 | 0.05 | 0.05 | 55 | 1007.8 |
| 20260507214400 | 64 | 115 | 3.0 | 8.0 | 0.00 | 0.05 | 0.05 | 56 | 1007.9 |
| 20260507213401 | 64 | 122 | 4.0 | 10.0 | 0.00 | 0.05 | 0.05 | 56 | 1007.9 |
| 20260507212400 | 64 | 98 | 2.0 | 9.0 | 0.00 | 0.05 | 0.05 | 55 | 1007.9 |
| 20260507211400 | 64 | 110 | 4.0 | 9.0 | 0.00 | 0.05 | 0.05 | 55 | 1008.1 |
| 20260507210400 | 64 | 140 | 3.0 | 9.0 | 0.00 | 0.05 | 0.05 | 54 | 1008.0 |
| 20260507205400 | 64 | 126 | 2.0 | 10.0 | 0.00 | 0.05 | 0.05 | 55 | 1008.0 |
| 20260507204401 | 64 | 123 | 4.0 | 8.0 | 0.00 | 0.05 | 0.05 | 55 | 1008.2 |
| 20260507203400 | 64 | 123 | 3.0 | 10.0 | 0.00 | 0.05 | 0.05 | 55 | 1007.9 |
| 20260507202401 | 64 | 101 | 3.0 | 10.0 | 0.00 | 0.05 | 0.05 | 52 | 1008.0 |
| 20260507201400 | 65 | 117 | 4.0 | 9.0 | 0.00 | 0.05 | 0.05 | 52 | 1007.9 |
| 20260507200400 | 65 | 95 | 4.0 | 12.0 | 0.00 | 0.05 | 0.05 | 54 | 1007.9 |
| 20260507195400 | 64 | 88 | 3.0 | 8.0 | 0.00 | 0.05 | 0.05 | 56 | 1008.1 |
| 20260507194400 | 64 | 63 | 3.0 | 8.0 | 0.00 | 0.05 | 0.05 | 56 | 1008.1 |
| 20260507193401 | 64 | 89 | 2.0 | 6.0 | 0.00 | 0.05 | 0.05 | 57 | 1008.3 |
| 20260507192400 | 63 | 106 | 2.0 | 6.0 | 0.00 | 0.05 | 0.05 | 54 | 1008.4 |
| 20260507191400 | 65 | 83 | 3.0 | 5.0 | 0.00 | 0.05 | 0.05 | 56 | 1008.3 |
| 20260507190421 | 64 | 127 | 1.0 | 7.0 | 0.00 | 0.05 | 0.05 | 55 | 1008.6 |
| 20260507185400 | 64 | 125 | 3.0 | 8.0 | 0.00 | 0.05 | 0.05 | 54 | 1008.8 |
| 20260507184422 | 63 | 86 | 2.0 | 7.0 | 0.00 | 0.05 | 0.05 | 55 | 1009.0 |
| 20260507183400 | 62 | 108 | 2.0 | 7.0 | 0.00 | 0.05 | 0.05 | 59 | 1009.1 |
| 20260507182401 | 61 | 60 | 4.0 | 11.0 | 0.00 | 0.05 | 0.05 | 58 | 1009.2 |
| 20260507181421 | 61 | 116 | 1.0 | 4.0 | 0.00 | 0.05 | 0.05 | 59 | 1009.2 |
| 20260507180400 | 61 | 67 | 1.0 | 6.0 | 0.00 | 0.05 | 0.05 | 57 | 1009.5 |
| 20260507175401 | 61 | 85 | 3.0 | 5.0 | 0.00 | 0.05 | 0.05 | 56 | 1009.7 |
| 20260507174400 | 61 | 124 | 2.0 | 6.0 | 0.00 | 0.05 | 0.05 | 57 | 1009.9 |
| 20260507173401 | 61 | 48 | 2.0 | 6.0 | 0.00 | 0.05 | 0.05 | 56 | 1010.0 |
| 20260507172400 | 61 | 71 | 2.0 | 7.0 | 0.00 | 0.05 | 0.05 | 54 | 1009.9 |
| 20260507171401 | 60 | 46 | 1.0 | 5.0 | 0.00 | 0.05 | 0.05 | 60 | 1010.0 |
| 20260507170401 | 58 | 42 | 2.0 | 3.0 | 0.00 | 0.05 | 0.05 | 59 | 1010.3 |